Flag for Germany Weather past 2 weeks in Walsrode, Lower Saxony, Germany

Now
64 °F

Scattered clouds.


Feels Like: 64 °F
Forecast: 55 / 77 °F
Wind: 5 mph from East

Location: Fassberg

Current Time: Aug 4, 2015 at 8:09:56 AM

Latest Report: Aug 4, 2015 at 7:20 AM


Visibility: N/A

Pressure: 29.89 "Hg

Humidity: 78%

Dew point: 57 °F

Location of WalsrodeLocation

Historic Weather in Walsrode — Graph

°F

Walsrode temperature yesterday

Maximum temperature yesterday: 88 °F (at 5:00 PM)
Minimum temperature yesterday: 52 °F (at 5:20 AM)
Average temperature yesterday: 71 °F

Past Weeks' High & Low Weather Summary

 TemperatureHumidityPressure
High88 °F (Aug 3, 5:00 PM)100% (Jul 21, 3:20 AM)30.15 "Hg (Jul 21, 3:20 AM)
Low41 °F (Aug 1, 3:20 AM)31% (Aug 3, 5:20 PM)29.45 "Hg (Jul 25, 2:20 PM)
Average62 °F73%29.85 "Hg
* Reported Jul 20 6:20 AM — Aug 4 6:20 AM, Walsrode, Weather by CustomWeather, © 2015

Note: Actual official high and low records may vary slightly from our data, if they occured in-between our weather recording intervals... More about our weather records

Advertising

Walsrode weather history for previous 24 hours

 ConditionsComfort  
Time TempWeatherWind HumidityBarometerVisibility
6:20 AM
Tue, Aug 4
59 °FPassing clouds.6 mph88%29.92 "HgN/A
5:20 AM59 °FPassing clouds.6 mph88%29.92 "HgN/A
4:20 AM61 °FPassing clouds.5 mph83%29.92 "HgN/A
3:20 AM61 °FPassing clouds.8 mph83%29.95 "HgN/A
2:20 AM63 °FPassing clouds.6 mph77%29.95 "HgN/A
1:20 AM68 °FPassing clouds.5 mph60%29.95 "HgN/A
12:20 AM70 °FPassing clouds.6 mph60%29.98 "HgN/A
11:20 PM
Mon, Aug 3
70 °FPassing clouds.5 mph60%29.98 "HgN/A
10:20 PM72 °FPassing clouds.7 mph61%29.98 "HgN/A
9:20 PM72 °FScattered clouds.5 mph65%29.98 "HgN/A
8:20 PM79 °FPassing clouds.3 mph58%29.98 "HgN/A
7:20 PM86 °FScattered clouds.6 mph31%29.98 "HgN/A
6:20 PM86 °FScattered clouds.7 mph33%29.98 "HgN/A
5:20 PM88 °FPassing clouds.12 mph31%29.98 "HgN/A
5:00 PM88 °FPassing clouds.12 mph33%29.98 "HgN/A
4:20 PM86 °FPassing clouds.10 mph35%30.01 "HgN/A
3:20 PM84 °FPassing clouds.12 mph37%30.01 "HgN/A
2:20 PM86 °FPassing clouds.10 mph38%30.01 "HgN/A
1:20 PM82 °FPassing clouds.13 mph45%30.04 "HgN/A
12:20 PM81 °FPassing clouds.10 mph42%30.04 "HgN/A
11:20 AM79 °FPassing clouds.10 mph48%30.07 "HgN/A
10:20 AM73 °FPassing clouds.6 mph53%30.07 "HgN/A
9:20 AM68 °FPassing clouds.7 mph64%30.07 "HgN/A
8:20 AM64 °FScattered clouds.7 mph68%30.07 "HgN/A
Weather by CustomWeather, © 2015

See weather overviewHow to use our weather pages